| time (UTC) | temp C | wind direction | speed KPH | gust KPH | rain 1hr cm | rain 24hr cm | rain mn cm | humidity % | barometer mb |
| 20260505152704 | 25 | 274 | 4.8 | 14.5 | 0.00 | 0.00 | 0.00 | 48 | 1016.3 |
| 20260505151805 | 24 | 277 | 4.8 | 16.1 | 0.00 | 0.00 | 0.00 | 49 | 1016.3 |
| 20260505151115 | 24 | 277 | 4.8 | 16.1 | 0.00 | 0.00 | 0.00 | 49 | 1016.3 |
| 20260505124504 | 18 | 339 | 3.2 | 9.7 | 0.00 | 0.00 | 0.00 | 50 | 1016.8 |
| 20260505123604 | 18 | 360 | 4.8 | 14.5 | 0.00 | 0.00 | 0.00 | 48 | 1016.7 |
| 20260505122705 | 18 | 360 | 3.2 | 12.9 | 0.00 | 0.00 | 0.00 | 44 | 1016.7 |
| 20260505121805 | 17 | 360 | 4.8 | 16.1 | 0.00 | 0.00 | 0.00 | 46 | 1016.6 |
| 20260505121117 | 17 | 360 | 4.8 | 14.5 | 0.00 | 0.00 | 0.00 | 45 | 1016.6 |
| 20260505120005 | 17 | 360 | 3.2 | 12.9 | 0.00 | 0.00 | 0.00 | 41 | 1016.5 |
| 20260505115616 | 17 | 360 | 3.2 | 11.3 | 0.00 | 0.00 | 0.00 | 39 | 1016.5 |
| 20260505114504 | 16 | 359 | 3.2 | 11.3 | 0.00 | 0.00 | 0.00 | 39 | 1016.4 |
| 20260505113604 | 16 | 271 | 1.6 | 8.0 | 0.00 | 0.00 | 0.00 | 36 | 1016.4 |
| 20260505112918 | 16 | 238 | 1.6 | 8.0 | 0.00 | 0.00 | 0.00 | 35 | 1016.3 |
| 20260505111804 | 15 | 257 | 3.2 | 11.3 | 0.00 | 0.00 | 0.00 | 31 | 1016.3 |
| 20260505110905 | 15 | 258 | 1.6 | 8.0 | 0.00 | 0.00 | 0.00 | 28 | 1016.3 |
| 20260505101804 | 15 | 263 | 1.6 | 8.0 | 0.00 | 0.00 | 0.00 | 23 | 1015.7 |
| 20260505100905 | 15 | 249 | 1.6 | 9.7 | 0.00 | 0.00 | 0.00 | 25 | 1015.6 |
| 20260505100005 | 15 | 256 | 3.2 | 9.7 | 0.00 | 0.00 | 0.00 | 27 | 1015.5 |
| 20260505095405 | 15 | 261 | 1.6 | 8.0 | 0.00 | 0.00 | 0.00 | 28 | 1015.5 |
| 20260505094505 | 15 | 264 | 3.2 | 11.3 | 0.00 | 0.00 | 0.00 | 29 | 1015.4 |
| 20260505093605 | 15 | 262 | 3.2 | 9.7 | 0.00 | 0.00 | 0.00 | 30 | 1015.3 |
| 20260505092914 | 15 | 270 | 1.6 | 9.7 | 0.00 | 0.00 | 0.00 | 30 | 1015.2 |
| 20260505091805 | 15 | 258 | 3.2 | 11.3 | 0.00 | 0.00 | 0.00 | 34 | 1015.2 |
| 20260505090905 | 15 | 255 | 3.2 | 12.9 | 0.00 | 0.00 | 0.00 | 33 | 1015.2 |
| 20260505090005 | 15 | 279 | 3.2 | 8.0 | 0.00 | 0.00 | 0.00 | 32 | 1015.1 |
| 20260505085405 | 15 | 274 | 1.6 | 6.4 | 0.00 | 0.00 | 0.00 | 32 | 1015.1 |
| 20260505084715 | 15 | 261 | 1.6 | 9.7 | 0.00 | 0.00 | 0.00 | 33 | 1015.0 |
| 20260505083817 | 16 | 266 | 3.2 | 9.7 | 0.00 | 0.00 | 0.00 | 34 | 1015.1 |
| 20260505082915 | 16 | 268 | 3.2 | 9.7 | 0.00 | 0.00 | 0.00 | 34 | 1015.1 |
| 20260505082017 | 16 | 259 | 1.6 | 11.3 | 0.00 | 0.00 | 0.00 | 34 | 1015.1 |
| 20260505081114 | 16 | 278 | 1.6 | 9.7 | 0.00 | 0.00 | 0.00 | 35 | 1015.2 |
| 20260505080005 | 16 | 264 | 1.6 | 8.0 | 0.00 | 0.00 | 0.00 | 37 | 1015.1 |
| 20260505075405 | 16 | 226 | 1.6 | 11.3 | 0.00 | 0.00 | 0.00 | 38 | 1015.1 |
| 20260505074505 | 16 | 252 | 3.2 | 11.3 | 0.00 | 0.00 | 0.00 | 38 | 1015.1 |
| 20260505073604 | 16 | 263 | 1.6 | 12.9 | 0.00 | 0.00 | 0.00 | 38 | 1015.0 |
| 20260505072705 | 16 | 263 | 1.6 | 9.7 | 0.00 | 0.00 | 0.00 | 39 | 1014.9 |
| 20260505071805 | 16 | 256 | 1.6 | 14.5 | 0.00 | 0.00 | 0.00 | 40 | 1014.8 |
| 20260505070905 | 16 | 265 | 3.2 | 8.0 | 0.00 | 0.00 | 0.00 | 41 | 1014.8 |
| 20260505070005 | 16 | 251 | 3.2 | 11.3 | 0.00 | 0.00 | 0.00 | 42 | 1014.8 |
| 20260505065405 | 16 | 254 | 3.2 | 16.1 | 0.00 | 0.00 | 0.00 | 42 | 1014.8 |
| 20260505064504 | 16 | 246 | 3.2 | 14.5 | 0.00 | 0.00 | 0.00 | 44 | 1014.7 |
| 20260505063604 | 16 | 240 | 1.6 | 11.3 | 0.00 | 0.00 | 0.00 | 45 | 1014.8 |
| 20260505062705 | 16 | 250 | 3.2 | 14.5 | 0.00 | 0.00 | 0.00 | 45 | 1014.8 |
| 20260505062018 | 16 | 267 | 3.2 | 14.5 | 0.00 | 0.00 | 0.00 | 46 | 1014.8 |
| 20260505060904 | 16 | 262 | 1.6 | 16.1 | 0.00 | 0.00 | 0.00 | 45 | 1014.9 |
| 20260505060218 | 16 | 257 | 1.6 | 16.1 | 0.00 | 0.00 | 0.00 | 45 | 1014.9 |
| 20260505055404 | 16 | 287 | 1.6 | 6.4 | 0.00 | 0.00 | 0.00 | 47 | 1014.9 |
| 20260505054717 | 17 | 279 | 1.6 | 8.0 | 0.00 | 0.00 | 0.00 | 48 | 1015.0 |
| 20260505053604 | 17 | 235 | 3.2 | 9.7 | 0.00 | 0.00 | 0.00 | 49 | 1014.9 |
| 20260505052705 | 17 | 249 | 3.2 | 12.9 | 0.00 | 0.00 | 0.00 | 49 | 1014.8 |
| 20260505051805 | 17 | 240 | 3.2 | 12.9 | 0.00 | 0.00 | 0.00 | 48 | 1014.9 |
| 20260505050904 | 17 | 245 | 3.2 | 12.9 | 0.00 | 0.00 | 0.00 | 48 | 1014.9 |
| 20260505040904 | 17 | 257 | 4.8 | 14.5 | 0.00 | 0.00 | 0.00 | 50 | 1014.9 |
| 20260505040119 | 18 | 258 | 4.8 | 16.1 | 0.00 | 0.00 | 0.00 | 51 | 1014.8 |
| 20260505035404 | 18 | 231 | 3.2 | 16.1 | 0.00 | 0.00 | 0.00 | 51 | 1014.8 |
| 20260505034505 | 18 | 260 | 3.2 | 12.9 | 0.00 | 0.00 | 0.00 | 51 | 1014.8 |
| 20260505033605 | 18 | 264 | 3.2 | 16.1 | 0.00 | 0.00 | 0.00 | 52 | 1014.7 |
| 20260505032705 | 18 | 253 | 3.2 | 16.1 | 0.00 | 0.00 | 0.00 | 52 | 1014.8 |
| 20260505031804 | 18 | 298 | 1.6 | 11.3 | 0.00 | 0.00 | 0.00 | 51 | 1014.8 |
| 20260505030904 | 18 | 267 | 4.8 | 11.3 | 0.00 | 0.00 | 0.00 | 51 | 1014.7 |
| 20260505030215 | 18 | 265 | 3.2 | 17.7 | 0.00 | 0.00 | 0.00 | 50 | 1014.7 |
| 20260505025405 | 18 | 265 | 4.8 | 19.3 | 0.00 | 0.00 | 0.00 | 50 | 1014.7 |
| 20260505024505 | 18 | 246 | 3.2 | 19.3 | 0.00 | 0.00 | 0.00 | 49 | 1014.7 |
| 20260505023605 | 18 | 282 | 3.2 | 11.3 | 0.00 | 0.00 | 0.00 | 47 | 1014.7 |
| 20260505022704 | 18 | 273 | 3.2 | 11.3 | 0.00 | 0.00 | 0.00 | 46 | 1014.6 |
| 20260505021805 | 18 | 300 | 3.2 | 11.3 | 0.00 | 0.00 | 0.00 | 46 | 1014.5 |
| 20260505020905 | 18 | 263 | 1.6 | 16.1 | 0.00 | 0.00 | 0.00 | 46 | 1014.4 |
| 20260505020005 | 19 | 258 | 3.2 | 16.1 | 0.00 | 0.00 | 0.00 | 45 | 1014.2 |
| 20260505015405 | 18 | 263 | 3.2 | 14.5 | 0.00 | 0.00 | 0.00 | 44 | 1014.1 |
| 20260505014505 | 19 | 262 | 1.6 | 11.3 | 0.00 | 0.00 | 0.00 | 44 | 1014.2 |
| 20260505013604 | 18 | 272 | 3.2 | 11.3 | 0.00 | 0.00 | 0.00 | 44 | 1014.3 |
| 20260505012705 | 18 | 245 | 1.6 | 12.9 | 0.00 | 0.00 | 0.00 | 43 | 1014.1 |
| 20260505011805 | 18 | 315 | 0.0 | 6.4 | 0.00 | 0.00 | 0.00 | 48 | 1014.0 |
| 20260505011114 | 19 | 254 | 0.0 | 8.0 | 0.00 | 0.00 | 0.00 | 51 | 1013.9 |
| 20260505010005 | 19 | 48 | 0.0 | 4.8 | 0.00 | 0.00 | 0.00 | 54 | 1013.8 |
| 20260505005618 | 19 | 18 | 0.0 | 4.8 | 0.00 | 0.00 | 0.00 | 55 | 1013.7 |
| 20260505004504 | 19 | 47 | 0.0 | 3.2 | 0.00 | 0.00 | 0.00 | 54 | 1013.6 |
| 20260505003605 | 20 | 309 | 0.0 | 4.8 | 0.00 | 0.00 | 0.00 | 52 | 1013.4 |
| 20260505002705 | 20 | 253 | 0.0 | 3.2 | 0.00 | 0.00 | 0.00 | 49 | 1013.3 |
| 20260505001804 | 20 | 221 | 0.0 | 1.6 | 0.00 | 0.00 | 0.00 | 50 | 1013.2 |
| 20260505000904 | 21 | 224 | 0.0 | 3.2 | 0.00 | 0.00 | 0.00 | 48 | 1013.2 |
| 20260505000005 | 21 | 224 | 0.0 | 3.2 | 0.00 | 0.00 | 0.00 | 46 | 1013.1 |
| 20260504235405 | 21 | 224 | 0.0 | 1.6 | 0.00 | 0.00 | 0.00 | 44 | 1013.1 |
| 20260504234504 | 22 | 223 | 0.0 | 1.6 | 0.00 | 0.00 | 0.00 | 42 | 1013.0 |
| 20260504233604 | 22 | 220 | 0.0 | 1.6 | 0.00 | 0.00 | 0.00 | 43 | 1012.9 |
| 20260504232705 | 23 | 360 | 0.0 | 8.0 | 0.00 | 0.00 | 0.00 | 39 | 1012.8 |
| 20260504231805 | 23 | 360 | 0.0 | 4.8 | 0.00 | 0.00 | 0.00 | 39 | 1012.7 |
| 20260504230904 | 23 | 360 | 1.6 | 12.9 | 0.00 | 0.00 | 0.00 | 38 | 1012.6 |
| 20260504230005 | 23 | 333 | 1.6 | 9.7 | 0.00 | 0.00 | 0.00 | 37 | 1012.8 |
| 20260504225405 | 23 | 289 | 3.2 | 9.7 | 0.00 | 0.00 | 0.00 | 37 | 1012.7 |
| 20260504224504 | 24 | 263 | 1.6 | 12.9 | 0.00 | 0.00 | 0.00 | 36 | 1012.7 |
| 20260504223604 | 25 | 248 | 3.2 | 12.9 | 0.00 | 0.00 | 0.00 | 36 | 1012.6 |
| 20260504222705 | 25 | 233 | 3.2 | 11.3 | 0.00 | 0.00 | 0.00 | 35 | 1012.6 |
| 20260504221805 | 25 | 253 | 3.2 | 11.3 | 0.00 | 0.00 | 0.00 | 35 | 1012.6 |
| 20260504220905 | 25 | 265 | 3.2 | 11.3 | 0.00 | 0.00 | 0.00 | 34 | 1012.6 |
| 20260504220005 | 26 | 232 | 3.2 | 14.5 | 0.00 | 0.00 | 0.00 | 34 | 1012.6 |
| 20260504215405 | 26 | 236 | 1.6 | 8.0 | 0.00 | 0.00 | 0.00 | 34 | 1012.6 |
| 20260504214504 | 25 | 267 | 3.2 | 19.3 | 0.00 | 0.00 | 0.00 | 35 | 1012.6 |
| 20260504213605 | 26 | 255 | 3.2 | 14.5 | 0.00 | 0.00 | 0.00 | 33 | 1012.7 |
| 20260504212704 | 26 | 235 | 3.2 | 17.7 | 0.00 | 0.00 | 0.00 | 34 | 1012.7 |
| 20260504211804 | 26 | 257 | 3.2 | 16.1 | 0.00 | 0.00 | 0.00 | 33 | 1012.7 |
| 20260504211116 | 25 | 240 | 4.8 | 16.1 | 0.00 | 0.00 | 0.00 | 32 | 1012.8 |
| 20260504210005 | 26 | 260 | 6.4 | 14.5 | 0.00 | 0.00 | 0.00 | 33 | 1012.7 |
| 20260504205404 | 26 | 268 | 4.8 | 17.7 | 0.00 | 0.00 | 0.00 | 33 | 1012.7 |
| 20260504204504 | 26 | 255 | 4.8 | 17.7 | 0.00 | 0.00 | 0.00 | 32 | 1012.7 |
| 20260504203605 | 26 | 269 | 8.0 | 17.7 | 0.00 | 0.00 | 0.00 | 33 | 1012.8 |
| 20260504202917 | 26 | 268 | 4.8 | 17.7 | 0.00 | 0.00 | 0.00 | 31 | 1012.9 |
| 20260504201804 | 26 | 256 | 4.8 | 22.5 | 0.00 | 0.00 | 0.00 | 33 | 1012.9 |
| 20260504200904 | 26 | 259 | 6.4 | 22.5 | 0.00 | 0.00 | 0.00 | 31 | 1013.0 |
| 20260504200005 | 26 | 250 | 3.2 | 17.7 | 0.00 | 0.00 | 0.00 | 33 | 1013.0 |
| 20260504195404 | 26 | 271 | 4.8 | 19.3 | 0.00 | 0.00 | 0.00 | 33 | 1013.0 |
| 20260504194505 | 26 | 257 | 3.2 | 16.1 | 0.00 | 0.00 | 0.00 | 32 | 1013.2 |
| 20260504193605 | 26 | 265 | 3.2 | 16.1 | 0.00 | 0.00 | 0.00 | 32 | 1013.3 |
| 20260504192705 | 25 | 255 | 3.2 | 14.5 | 0.00 | 0.00 | 0.00 | 35 | 1013.4 |
| 20260504191805 | 25 | 256 | 4.8 | 14.5 | 0.00 | 0.00 | 0.00 | 36 | 1013.5 |
| 20260504190904 | 25 | 270 | 4.8 | 16.1 | 0.00 | 0.00 | 0.00 | 37 | 1013.6 |
| 20260504190005 | 25 | 257 | 6.4 | 17.7 | 0.00 | 0.00 | 0.00 | 36 | 1013.8 |
| 20260504185404 | 25 | 265 | 8.0 | 19.3 | 0.00 | 0.00 | 0.00 | 35 | 1013.9 |
| 20260504184505 | 25 | 267 | 8.0 | 19.3 | 0.00 | 0.00 | 0.00 | 36 | 1013.9 |
| 20260504183604 | 24 | 277 | 6.4 | 19.3 | 0.00 | 0.00 | 0.00 | 37 | 1014.2 |
| 20260504182705 | 24 | 272 | 6.4 | 19.3 | 0.00 | 0.00 | 0.00 | 37 | 1014.5 |
| 20260504182016 | 24 | 265 | 6.4 | 19.3 | 0.00 | 0.00 | 0.00 | 39 | 1014.5 |
| 20260504180904 | 23 | 264 | 6.4 | 20.9 | 0.00 | 0.00 | 0.00 | 39 | 1014.5 |
| 20260504180005 | 24 | 259 | 4.8 | 20.9 | 0.00 | 0.00 | 0.00 | 39 | 1014.8 |
| 20260504175405 | 23 | 256 | 3.2 | 14.5 | 0.00 | 0.00 | 0.00 | 40 | 1014.7 |
| 20260504174504 | 23 | 273 | 6.4 | 22.5 | 0.00 | 0.00 | 0.00 | 41 | 1014.7 |
| 20260504173605 | 23 | 268 | 4.8 | 16.1 | 0.00 | 0.00 | 0.00 | 44 | 1014.9 |
| 20260504172704 | 23 | 260 | 6.4 | 25.7 | 0.00 | 0.00 | 0.00 | 42 | 1014.8 |
| 20260504172017 | 23 | 270 | 8.0 | 25.7 | 0.00 | 0.00 | 0.00 | 40 | 1015.0 |
| 20260504171114 | 23 | 273 | 6.4 | 17.7 | 0.00 | 0.00 | 0.00 | 42 | 1015.0 |